Location: Auckland
(36.8670°S, 174.7670°E)
Time: 09:02:44
(UTC+13:00)

SPOT 3 Rocket - Pass Details

Date: 24 January 2019
Orbit: 780 x 794 km, 98.8° (Epoch: 16 February)

Event Time Altitude Azimuth Distance (km) Brightness Sun altitude
Rises 21:58:44 0° 173° (S) 3,314 7.2 -14.5°
Reaches altitude 10° 22:01:07 10° 177° (S) 2,376 6.5 -14.9°
Maximum altitude 22:06:11 51° 252° (WSW) 986 4.4 -15.7°
Drops below altitude 10° 22:11:11 10° 327° (NNW) 2,339 5.9 -16.5°
Sets 22:13:31 0° 331° (NNW) 3,258 6.6 -16.8°
